Location: Henderson
(36.0400°N, 114.9810°W)
Time: 08:25:17
(UTC-07:00)

Daily predictions for brighter satellites

Satellite Brightness Start Highest point End
(mag) Time Altitude Azimuth Time Altitude Azimuth Time Altitude Azimuth
Cosmos 2360 Rocket 2.3 18:09:38 10° NNW 18:15:20 88° WSW 18:21:00 10° SSE
CSL-04 Rocket 4.1 18:11:06 10° S 18:16:25 70° WSW 18:21:43 10° NNW
ALOS 3.5 18:14:19 10° ESE 18:17:43 20° ENE 18:21:08 10° NNE
Cosmos 1048 Rocket 4.0 18:12:47 10° S 18:17:50 62° ESE 18:22:53 10° NNE
CSL-04 Debris 4.5 18:12:32 10° S 18:18:02 77° WSW 18:23:32 10° NNW
Atlas Centaur 2 3.3 18:15:03 10° WSW 18:18:19 24° SSW 18:22:06 10° SE
Aureole 2 4.4 18:15:36 10° N 18:18:52 62° ENE 18:22:37 10° SSE
Gbstr 26 Del rocket 4.2 18:14:55 10° NW 18:19:30 38° NE 18:25:04 10° ESE
Cosmos 1727 Rocket 4.0 18:13:50 10° N 18:20:13 81° E 18:26:31 10° S
Cosmos 1500 Rocket 3.5 18:18:08 10° N 18:22:29 86° E 18:26:47 10° S
Cosmos 1400 Rocket 3.5 18:19:45 10° NNW 18:23:41 59° W 18:27:32 10° S
CORIOLIS 4.2 18:19:11 10° SSE 18:24:34 88° ENE 18:30:01 10° NNW
ERS-2 2.1 18:23:02 10° SSE 18:26:43 77° ENE 18:30:25 10° N
Cosmos 1420 Rocket 4.0 18:21:52 10° NNW 18:27:10 69° ENE 18:32:24 10° SSE
BREEZE-M DEB (TANK) 4.2 18:29:25 10° WNW 18:30:49 14° NNW 18:32:00 10° N
Cosmos 1726 2.6 18:27:54 10° SSE 18:31:18 36° E 18:34:41 10° NNE
Hubble Space Telescope 2.6 18:29:07 10° SW 18:32:16 21° SSE 18:35:25 10° ESE
Cosmos 2219 3.2 18:26:55 10° SSW 18:32:39 77° ESE 18:38:24 10° NNE
COSMOS 2428 2.8 18:27:38 10° NNW 18:33:13 56° ENE 18:38:47 10° SE
Cosmos 2333 Rocket 3.0 18:30:47 10° N 18:35:49 30° ENE 18:40:50 10° ESE
Cosmos 2297 Rocket 3.3 18:33:18 10° SSE 18:37:35 22° E 18:41:51 10° NE
DELTA 2 R/B (1) 3.9 18:33:18 10° WNW 18:38:50 67° SSW 18:44:22 10° ESE
Cosmos 2058 3.8 18:35:55 10° NNW 18:39:58 54° W 18:43:59 10° S
MONITOR-E 4.2 18:38:34 10° SSE 18:41:33 51° ENE 18:44:33 10° N
Sich 1 3.9 18:39:22 10° NNE 18:43:10 28° ENE 18:46:57 10° SE
Cosmos 44 4.4 18:39:14 10° SW 18:43:19 39° WNW 18:47:23 10° NNE
Cosmos 2151 4.2 18:40:29 10° NNW 18:44:35 47° W 18:48:37 10° SSW
NOAA 12 4.4 18:41:04 10° SE 18:46:04 46° ENE 18:51:09 10° N
MOS 1 4.2 18:41:56 10° SSE 18:47:35 76° ENE 18:53:16 10° N
EO 1 Del DPAF 3.6 18:44:53 10° N 18:48:42 67° WNW 18:52:30 10° SSW
COSMO-SKYMED 1 2.7 18:47:58 10° N 18:52:19 80° WNW 18:56:39 10° SSW
Thor Agena Rocket 4.0 18:49:18 10° NNE 18:53:58 36° E 18:58:35 10° SSE
METEOR-M 4.1 18:50:26 10° SSE 18:55:46 89° ENE 19:01:09 10° NNW
CZ-4 R/B 3.2 18:52:20 10° SSW 18:56:13 37° W 19:00:04 10° NNW
MINOTAUR R/B 4.2 18:56:22 10° SSW 18:58:58 78° WNW 19:01:17 13° NNE
Cosmos 2219 Rocket 2.2 18:55:43 10° NNW 19:01:15 58° ENE 19:06:46 10° SE
Cosmos 1805 Rocket 3.4 18:57:25 10° N 19:01:50 73° E 19:06:14 10° SSE
Aureole 2 Rocket 2.7 18:59:51 10° NNW 19:03:52 73° ENE 19:07:57 10° SSE
Centaur D AC-29 3.0 18:54:53 10° WSW 19:05:56 36° SSW 19:08:57 16° SE
Cosmos 2228 Rocket 3.8 19:05:53 10° SSE 19:09:52 31° E 19:12:17 19° NE
YAOGAN 1 4.1 19:05:58 10° SSW 19:10:00 39° W 19:14:04 10° NNW
Cosmos 1328 Rocket 3.9 19:07:05 10° SSE 19:11:11 39° E 19:15:16 10° NNE
Cosmos 1666 Rocket 3.5 19:07:10 10° N 19:11:25 57° E 19:15:39 10° SSE
CZ-4C R/B 3.4 19:07:59 10° WSW 19:12:50 40° NW 19:18:18 10° NNE
Cosmos 1633 Rocket 3.2 19:10:47 10° N 19:15:07 51° E 19:19:24 10° SSE
Cosmos 1535 Rocket 4.5 19:09:59 10° S 19:16:07 83° W 19:22:14 10° N
BREEZE-M DEB (TANK) 4.5 19:12:08 10° NW 19:17:18 74° NE 19:42:33 10° SE
Iridium 4 Rocket 4.2 19:12:08 10° S 19:17:42 66° W 19:23:35 10° N
Meteor 2-2 Rocket 4.2 19:13:09 10° S 19:18:45 62° E 19:24:18 10° NNE
PSLV R/B 3.7 19:15:55 10° W 19:18:56 45° NNW 19:19:25 41° NNE
Cosmos 2084 3.0 19:22:16 10° NNW 19:26:05 75° ENE 19:26:59 50° SE
Cosmos 494 Rocket 3.9 19:22:33 10° SSW 19:27:39 85° WNW 19:32:47 10° NNE
Meteor 1-27 4.5 19:23:40 10° SSE 19:29:02 44° E 19:34:30 10° NNE
H-2A R/B 2.7 19:30:41 59° ENE 19:30:41 59° ENE 19:34:26 10° N
SPOT 3 Rocket 4.5 19:26:14 10° S 19:31:14 49° W 19:36:18 10° NNW
Delta 2 Rocket 3.9 19:29:43 10° W 19:33:22 38° SSW 19:33:56 36° S
In-Cosmos 22 Rocket 4.2 19:31:32 10° N 19:37:20 81° E 19:43:10 10° S
Cosmos 2237 Rocket 2.1 19:34:34 10° NNW 19:40:16 66° ENE 19:42:12 41° SE
Cosmos 1300 4.2 19:38:19 10° SSW 19:41:51 37° W 19:45:26 10° N
Cosmos 1110 Rocket 4.0 19:37:47 10° NNW 19:43:06 83° WSW 19:47:25 15° SSE
Cosmos 2227 Rocket 2.3 19:38:29 10° SSW 19:44:07 75° WNW 19:49:49 10° NNE
BREEZE M DEB (TANK) 4.5 19:36:10 10° WNW 19:50:12 45° NNE 19:51:22 40° NE
Centaur AC-112 4.2 19:46:30 10° WSW 19:50:14 19° SSW 19:50:27 19° SSW
MOS 1-B Rocket 3.9 19:53:43 55° ENE 19:53:43 55° ENE 19:59:30 10° N
SL-16 R/B 3.4 19:48:42 10° N 19:51:50 27° NNE 19:51:50 27° NNE
USA 32 3.8 19:49:06 10° N 19:54:21 74° E 19:54:29 73° E
ALOS 3.8 19:50:38 10° SSW 19:54:53 35° W 19:59:10 10° NNW
BREEZE-M R/B 4.3 19:55:12 10° W 19:57:00 26° NW 19:57:00 26° NW
Cosmos 1980 3.8 19:59:20 10° NNW 20:04:58 70° WSW 20:06:54 42° S
Atlas Centaur 2 4.4 20:05:54 10° SSW 20:06:46 10° SSW 20:07:38 10° SSW
Cosmos 2251 Rocket 4.4 20:05:41 10° SW 20:10:46 47° WNW 20:15:23 13° N
Hubble Space Telescope 2.9 20:09:25 10° WSW 20:11:13 20° SW 20:11:13 20° SW
Meteor 2-3 Rocket 3.9 20:13:09 10° N 20:18:04 66° NNW 20:18:04 66° NNW
Cosmos 2333 Rocket 3.7 20:14:55 10° NW 20:20:02 34° WSW 20:25:09 10° SSW
Cosmos 2297 Rocket 3.2 20:15:55 10° SW 20:21:15 43° WNW 20:24:46 20° N
Cosmos 967 Rocket 4.5 20:19:14 10° NNW 20:25:36 80° W 20:25:36 80° W
USA 267 3.6 20:39:31 54° SW 20:39:31 54° SW 20:44:22 10° SW
